Location: Wanzleben
(52.0609°N, 11.4408°E)
Time: 17:22:36
(UTC+00:00)

Envisat - Pass Details

Date: 29 November 2020
Orbit: 764 x 766 km, 98.1° (Epoch: 20 January)

Event Time Altitude Azimuth Distance (km) Brightness Sun altitude
Rises 04:50:31 0° 18° (NNE) 3,248 6.3 -18.7°
Reaches altitude 10° 04:52:55 10° 24° (NNE) 2,317 5.6 -18.3°
Maximum altitude 04:57:51 49° 99° (E) 992 4.0 -17.6°
Drops below altitude 10° 05:02:46 10° 174° (S) 2,299 5.7 -16.8°
Sets 05:05:08 0° 180° (S) 3,220 6.4 -16.5°
